| time (UTC) | temp C | wind direction | speed KPH | gust KPH | rain 1hr cm | rain 24hr cm | rain mn cm | humidity % | barometer mb |
| 20260902221204 | 20 | 338 | 19.3 | 0.0 | 0.00 | 0.00 | 0.00 | 80 | 1010.6 |
| 20260902220704 | 20 | 0 | 17.7 | 0.0 | 0.00 | 0.00 | 0.00 | 78 | 1010.2 |
| 20260902220204 | 20 | 315 | 11.3 | 0.0 | 0.00 | 0.00 | 0.00 | 76 | 1010.2 |
| 20260902215703 | 20 | 0 | 4.8 | 0.0 | 0.00 | 0.00 | 0.00 | 77 | 1009.8 |
| 20260902214703 | 20 | 225 | 3.2 | 0.0 | 0.00 | 0.00 | 0.00 | 78 | 1009.5 |
| 20260902214204 | 20 | 315 | 4.8 | 0.0 | 0.00 | 0.00 | 0.00 | 78 | 1009.8 |
| 20260902213704 | 20 | 180 | 3.2 | 0.0 | 0.00 | 0.00 | 0.00 | 77 | 1009.9 |
| 20260902213204 | 20 | 135 | 6.4 | 0.0 | 0.00 | 0.00 | 0.00 | 75 | 1009.6 |
| 20260902212704 | 20 | 0 | 9.7 | 0.0 | 0.00 | 0.00 | 0.00 | 73 | 1009.6 |
| 20260902204703 | 23 | 45 | 0.0 | 0.0 | 0.00 | 0.00 | 0.00 | 52 | 1008.8 |
| 20260902203204 | 23 | 45 | 0.0 | 0.0 | 0.00 | 0.00 | 0.00 | 52 | 1008.7 |
| 20260902202704 | 23 | 225 | 0.0 | 0.0 | 0.00 | 0.00 | 0.00 | 53 | 1008.7 |
| 20260902202204 | 23 | 225 | 1.6 | 0.0 | 0.00 | 0.00 | 0.00 | 52 | 1008.9 |
| 20260902201704 | 24 | 225 | 0.0 | 0.0 | 0.00 | 0.00 | 0.00 | 52 | 1008.8 |
| 20260902201204 | 24 | 225 | 1.6 | 0.0 | 0.00 | 0.00 | 0.00 | 51 | 1008.8 |
| 20260902200704 | 24 | 225 | 3.2 | 0.0 | 0.00 | 0.00 | 0.00 | 51 | 1008.9 |
| 20260902200204 | 24 | 135 | 3.2 | 0.0 | 0.00 | 0.00 | 0.00 | 51 | 1008.9 |
| 20260902195204 | 23 | 180 | 0.0 | 0.0 | 0.00 | 0.00 | 0.00 | 52 | 1009.1 |
| 20260902194704 | 23 | 225 | 0.0 | 0.0 | 0.00 | 0.00 | 0.00 | 53 | 1009.0 |
| 20260902194204 | 23 | 113 | 1.6 | 0.0 | 0.00 | 0.00 | 0.00 | 54 | 1009.1 |
| 20260902193704 | 23 | 225 | 0.0 | 0.0 | 0.00 | 0.00 | 0.00 | 53 | 1009.1 |
| 20260902192704 | 24 | 180 | 0.0 | 0.0 | 0.00 | 0.00 | 0.00 | 52 | 1009.0 |
| 20260902192204 | 24 | 180 | 0.0 | 0.0 | 0.00 | 0.00 | 0.00 | 52 | 1008.8 |
| 20260902191704 | 24 | 180 | 0.0 | 0.0 | 0.00 | 0.00 | 0.00 | 52 | 1009.0 |
| 20260902191204 | 24 | 180 | 1.6 | 0.0 | 0.00 | 0.00 | 0.00 | 52 | 1009.0 |
| 20260902190704 | 24 | 180 | 1.6 | 0.0 | 0.00 | 0.00 | 0.00 | 54 | 1009.0 |
| 20260902190203 | 24 | 180 | 1.6 | 0.0 | 0.00 | 0.00 | 0.00 | 54 | 1009.0 |
| 20260902185205 | 24 | 180 | 0.0 | 0.0 | 0.00 | 0.00 | 0.00 | 56 | 1008.8 |
| 20260902184204 | 23 | 135 | 0.0 | 0.0 | 0.00 | 0.00 | 0.00 | 60 | 1008.7 |
| 20260902183704 | 23 | 270 | 1.6 | 0.0 | 0.00 | 0.00 | 0.00 | 60 | 1008.8 |
| 20260902183204 | 23 | 225 | 3.2 | 0.0 | 0.00 | 0.00 | 0.00 | 61 | 1008.6 |
| 20260902182704 | 23 | 0 | 3.2 | 0.0 | 0.00 | 0.00 | 0.00 | 61 | 1008.5 |
| 20260902181704 | 23 | 180 | 3.2 | 0.0 | 0.00 | 0.00 | 0.00 | 63 | 1008.4 |
| 20260902180704 | 23 | 225 | 0.0 | 0.0 | 0.00 | 0.00 | 0.00 | 68 | 1008.7 |
| 20260902180204 | 23 | 225 | 0.0 | 0.0 | 0.00 | 0.00 | 0.00 | 68 | 1008.7 |
| 20260902175704 | 24 | 270 | 1.6 | 0.0 | 0.00 | 0.00 | 0.00 | 68 | 1008.7 |
| 20260902175204 | 24 | 270 | 1.6 | 0.0 | 0.00 | 0.00 | 0.00 | 67 | 1008.6 |
| 20260902174704 | 24 | 0 | 1.6 | 0.0 | 0.00 | 0.00 | 0.00 | 66 | 1008.6 |
| 20260902174204 | 24 | 45 | 1.6 | 0.0 | 0.00 | 0.00 | 0.00 | 65 | 1008.2 |
| 20260902173704 | 24 | 45 | 0.0 | 0.0 | 0.00 | 0.00 | 0.00 | 64 | 1008.4 |
| 20260902173204 | 25 | 180 | 0.0 | 0.0 | 0.00 | 0.00 | 0.00 | 64 | 1008.5 |
| 20260902170204 | 26 | 135 | 3.2 | 0.0 | 0.00 | 0.00 | 0.00 | 62 | 1008.0 |
| 20260902165704 | 26 | 135 | 3.2 | 0.0 | 0.00 | 0.00 | 0.00 | 62 | 1008.0 |
| 20260902165204 | 26 | 45 | 3.2 | 0.0 | 0.00 | 0.00 | 0.00 | 61 | 1008.0 |
| 20260902164204 | 26 | 90 | 1.6 | 0.0 | 0.00 | 0.00 | 0.00 | 60 | 1007.7 |
| 20260902163703 | 26 | 90 | 1.6 | 0.0 | 0.00 | 0.00 | 0.00 | 57 | 1007.6 |
| 20260902163204 | 27 | 90 | 3.2 | 0.0 | 0.00 | 0.00 | 0.00 | 57 | 1007.7 |
| 20260902162705 | 27 | 180 | 4.8 | 0.0 | 0.00 | 0.00 | 0.00 | 56 | 1007.8 |
| 20260902162204 | 27 | 135 | 3.2 | 0.0 | 0.00 | 0.00 | 0.00 | 51 | 1008.0 |
| 20260902161205 | 28 | 90 | 3.2 | 0.0 | 0.00 | 0.00 | 0.00 | 50 | 1008.0 |
| 20260902160705 | 28 | 225 | 4.8 | 0.0 | 0.00 | 0.00 | 0.00 | 47 | 1008.0 |
| 20260902160203 | 28 | 180 | 3.2 | 0.0 | 0.00 | 0.00 | 0.00 | 45 | 1008.1 |
| 20260902155703 | 28 | 90 | 3.2 | 0.0 | 0.00 | 0.00 | 0.00 | 45 | 1008.0 |
| 20260902155204 | 28 | 225 | 6.4 | 0.0 | 0.00 | 0.00 | 0.00 | 45 | 1008.0 |
| 20260902154703 | 28 | 135 | 3.2 | 0.0 | 0.00 | 0.00 | 0.00 | 44 | 1007.9 |
| 20260902154204 | 28 | 270 | 6.4 | 0.0 | 0.00 | 0.00 | 0.00 | 43 | 1007.7 |
| 20260902152704 | 28 | 135 | 8.0 | 0.0 | 0.00 | 0.00 | 0.00 | 42 | 1007.7 |
| 20260902152204 | 28 | 135 | 3.2 | 0.0 | 0.00 | 0.00 | 0.00 | 43 | 1007.8 |
| 20260902151704 | 28 | 135 | 6.4 | 0.0 | 0.00 | 0.00 | 0.00 | 43 | 1007.9 |
| 20260902151204 | 28 | 180 | 8.0 | 0.0 | 0.00 | 0.00 | 0.00 | 43 | 1007.9 |
| 20260902150704 | 28 | 225 | 6.4 | 0.0 | 0.00 | 0.00 | 0.00 | 43 | 1007.8 |
| 20260902150204 | 29 | 225 | 6.4 | 0.0 | 0.00 | 0.00 | 0.00 | 42 | 1007.9 |
| 20260902145705 | 29 | 180 | 6.4 | 0.0 | 0.00 | 0.00 | 0.00 | 42 | 1007.9 |
| 20260902145204 | 29 | 135 | 3.2 | 0.0 | 0.00 | 0.00 | 0.00 | 42 | 1007.8 |
| 20260902144704 | 30 | 180 | 8.0 | 0.0 | 0.00 | 0.00 | 0.00 | 42 | 1007.9 |
| 20260902143204 | 31 | 180 | 9.7 | 0.0 | 0.00 | 0.00 | 0.00 | 39 | 1007.9 |
| 20260902142705 | 31 | 90 | 9.7 | 0.0 | 0.00 | 0.00 | 0.00 | 37 | 1007.7 |
| 20260902142204 | 31 | 180 | 3.2 | 0.0 | 0.00 | 0.00 | 0.00 | 37 | 1007.9 |
| 20260902141704 | 31 | 135 | 3.2 | 0.0 | 0.00 | 0.00 | 0.00 | 39 | 1007.9 |
| 20260902141204 | 31 | 180 | 3.2 | 0.0 | 0.00 | 0.00 | 0.00 | 38 | 1008.0 |
| 20260902140704 | 31 | 225 | 3.2 | 0.0 | 0.00 | 0.00 | 0.00 | 39 | 1008.2 |
| 20260902140204 | 31 | 135 | 6.4 | 0.0 | 0.00 | 0.00 | 0.00 | 38 | 1008.5 |
| 20260902135704 | 32 | 180 | 8.0 | 0.0 | 0.00 | 0.00 | 0.00 | 36 | 1008.2 |
| 20260902135204 | 32 | 135 | 6.4 | 0.0 | 0.00 | 0.00 | 0.00 | 34 | 1008.5 |
| 20260902134203 | 32 | 135 | 9.7 | 0.0 | 0.00 | 0.00 | 0.00 | 33 | 1008.7 |
| 20260902133703 | 31 | 225 | 6.4 | 0.0 | 0.00 | 0.00 | 0.00 | 33 | 1008.6 |
| 20260902133204 | 32 | 180 | 6.4 | 0.0 | 0.00 | 0.00 | 0.00 | 32 | 1008.6 |
| 20260902132704 | 32 | 180 | 11.3 | 0.0 | 0.00 | 0.00 | 0.00 | 33 | 1008.8 |
| 20260902132204 | 32 | 180 | 6.4 | 0.0 | 0.00 | 0.00 | 0.00 | 33 | 1008.6 |
| 20260902131703 | 32 | 180 | 12.9 | 0.0 | 0.00 | 0.00 | 0.00 | 32 | 1008.6 |
| 20260902131204 | 32 | 90 | 9.7 | 0.0 | 0.00 | 0.00 | 0.00 | 32 | 1008.8 |
| 20260902130704 | 32 | 158 | 8.0 | 0.0 | 0.00 | 0.00 | 0.00 | 32 | 1008.8 |
| 20260902130204 | 32 | 45 | 12.9 | 0.0 | 0.00 | 0.00 | 0.00 | 32 | 1008.7 |
| 20260902125704 | 32 | 203 | 11.3 | 0.0 | 0.00 | 0.00 | 0.00 | 31 | 1008.8 |
| 20260902125204 | 32 | 225 | 6.4 | 0.0 | 0.00 | 0.00 | 0.00 | 33 | 1008.7 |
| 20260902124205 | 32 | 180 | 12.9 | 0.0 | 0.00 | 0.00 | 0.00 | 32 | 1009.0 |
| 20260902123704 | 32 | 158 | 9.7 | 0.0 | 0.00 | 0.00 | 0.00 | 31 | 1008.8 |
| 20260902122204 | 31 | 180 | 3.2 | 0.0 | 0.00 | 0.00 | 0.00 | 41 | 1009.3 |
| 20260902121704 | 31 | 225 | 4.8 | 0.0 | 0.00 | 0.00 | 0.00 | 42 | 1009.3 |
| 20260902121204 | 30 | 135 | 3.2 | 0.0 | 0.00 | 0.00 | 0.00 | 43 | 1009.5 |
| 20260902120703 | 31 | 225 | 8.0 | 0.0 | 0.00 | 0.00 | 0.00 | 45 | 1009.6 |
| 20260902120203 | 31 | 270 | 3.2 | 0.0 | 0.00 | 0.00 | 0.00 | 46 | 1009.7 |
| 20260902115704 | 31 | 225 | 3.2 | 0.0 | 0.00 | 0.00 | 0.00 | 47 | 1009.7 |
| 20260902114704 | 31 | 180 | 6.4 | 0.0 | 0.00 | 0.00 | 0.00 | 44 | 1009.8 |
| 20260902114204 | 31 | 135 | 6.4 | 0.0 | 0.00 | 0.00 | 0.00 | 44 | 1009.7 |
| 20260902113703 | 31 | 270 | 6.4 | 0.0 | 0.00 | 0.00 | 0.00 | 44 | 1009.8 |
| 20260902113204 | 31 | 225 | 11.3 | 0.0 | 0.00 | 0.00 | 0.00 | 43 | 1010.0 |
| 20260902112705 | 31 | 180 | 12.9 | 0.0 | 0.00 | 0.00 | 0.00 | 43 | 1010.0 |
| 20260902112205 | 31 | 248 | 6.4 | 0.0 | 0.00 | 0.00 | 0.00 | 44 | 1009.9 |
| 20260902111704 | 31 | 270 | 3.2 | 0.0 | 0.00 | 0.00 | 0.00 | 44 | 1010.1 |
| 20260902110704 | 31 | 180 | 6.4 | 0.0 | 0.00 | 0.00 | 0.00 | 48 | 1010.2 |
| 20260902110204 | 31 | 180 | 6.4 | 0.0 | 0.00 | 0.00 | 0.00 | 48 | 1010.2 |
| 20260902105704 | 30 | 225 | 6.4 | 0.0 | 0.00 | 0.00 | 0.00 | 48 | 1010.3 |
| 20260902105204 | 30 | 225 | 9.7 | 0.0 | 0.00 | 0.00 | 0.00 | 49 | 1010.6 |
| 20260902104704 | 30 | 225 | 8.0 | 0.0 | 0.00 | 0.00 | 0.00 | 50 | 1010.4 |
| 20260902104204 | 30 | 180 | 6.4 | 0.0 | 0.00 | 0.00 | 0.00 | 50 | 1010.3 |
| 20260902103704 | 30 | 180 | 4.8 | 0.0 | 0.00 | 0.00 | 0.00 | 50 | 1010.6 |
| 20260902102703 | 29 | 270 | 6.4 | 0.0 | 0.00 | 0.00 | 0.00 | 50 | 1010.8 |
| 20260902102204 | 30 | 180 | 8.0 | 0.0 | 0.00 | 0.00 | 0.00 | 50 | 1010.7 |
| 20260902101703 | 28 | 203 | 3.2 | 0.0 | 0.00 | 0.00 | 0.00 | 52 | 1010.6 |
| 20260902101204 | 28 | 180 | 6.4 | 0.0 | 0.00 | 0.00 | 0.00 | 52 | 1010.8 |
| 20260902100704 | 28 | 225 | 8.0 | 0.0 | 0.00 | 0.00 | 0.00 | 53 | 1010.8 |
| 20260902100204 | 28 | 180 | 4.8 | 0.0 | 0.00 | 0.00 | 0.00 | 53 | 1010.9 |
| 20260902095703 | 28 | 248 | 4.8 | 0.0 | 0.00 | 0.00 | 0.00 | 52 | 1010.9 |
| 20260902095204 | 29 | 180 | 6.4 | 0.0 | 0.00 | 0.00 | 0.00 | 51 | 1011.0 |
| 20260902094704 | 29 | 180 | 8.0 | 0.0 | 0.00 | 0.00 | 0.00 | 50 | 1010.9 |
| 20260902093704 | 30 | 180 | 6.4 | 0.0 | 0.00 | 0.00 | 0.00 | 46 | 1010.9 |
| 20260902093204 | 30 | 180 | 3.2 | 0.0 | 0.00 | 0.00 | 0.00 | 42 | 1010.9 |
| 20260902092703 | 30 | 0 | 3.2 | 0.0 | 0.00 | 0.00 | 0.00 | 42 | 1011.1 |
| 20260902092204 | 31 | 45 | 6.4 | 0.0 | 0.00 | 0.00 | 0.00 | 42 | 1011.1 |
| 20260902091705 | 31 | 315 | 3.2 | 0.0 | 0.00 | 0.00 | 0.00 | 41 | 1011.2 |
| 20260902091204 | 31 | 135 | 4.8 | 0.0 | 0.00 | 0.00 | 0.00 | 43 | 1011.1 |
| 20260902090705 | 30 | 23 | 6.4 | 0.0 | 0.00 | 0.00 | 0.00 | 43 | 1011.1 |
| 20260902090204 | 30 | 0 | 6.4 | 0.0 | 0.00 | 0.00 | 0.00 | 41 | 1011.3 |
| 20260902085204 | 30 | 225 | 4.8 | 0.0 | 0.00 | 0.00 | 0.00 | 41 | 1011.5 |
| 20260902084704 | 30 | 225 | 3.2 | 0.0 | 0.00 | 0.00 | 0.00 | 42 | 1011.2 |
| 20260902084204 | 30 | 135 | 4.8 | 0.0 | 0.00 | 0.00 | 0.00 | 43 | 1011.3 |
| 20260902083704 | 30 | 0 | 12.9 | 0.0 | 0.00 | 0.00 | 0.00 | 43 | 1011.3 |
| 20260902083204 | 30 | 45 | 3.2 | 0.0 | 0.00 | 0.00 | 0.00 | 44 | 1011.3 |
| 20260902082703 | 29 | 45 | 6.4 | 0.0 | 0.00 | 0.00 | 0.00 | 47 | 1011.2 |
| 20260902081704 | 28 | 0 | 6.4 | 0.0 | 0.00 | 0.00 | 0.00 | 50 | 1011.4 |
| 20260902081204 | 28 | 45 | 4.8 | 0.0 | 0.00 | 0.00 | 0.00 | 51 | 1011.5 |
| 20260902080704 | 28 | 0 | 9.7 | 0.0 | 0.00 | 0.00 | 0.00 | 51 | 1011.4 |
| 20260902080204 | 28 | 45 | 8.0 | 0.0 | 0.00 | 0.00 | 0.00 | 51 | 1011.6 |
| 20260902075704 | 28 | 180 | 3.2 | 0.0 | 0.00 | 0.00 | 0.00 | 52 | 1011.5 |
| 20260902073704 | 28 | 135 | 3.2 | 0.0 | 0.00 | 0.00 | 0.00 | 56 | 1011.6 |
| 20260902072704 | 28 | 45 | 6.4 | 0.0 | 0.00 | 0.00 | 0.00 | 55 | 1011.3 |
| 20260902072204 | 28 | 0 | 6.4 | 0.0 | 0.00 | 0.00 | 0.00 | 54 | 1011.5 |
| 20260902071704 | 28 | 0 | 3.2 | 0.0 | 0.00 | 0.00 | 0.00 | 54 | 1011.4 |
| 20260902070705 | 27 | 135 | 4.8 | 0.0 | 0.00 | 0.00 | 0.00 | 57 | 1011.5 |
| 20260902070204 | 27 | 180 | 1.6 | 0.0 | 0.00 | 0.00 | 0.00 | 61 | 1011.5 |
| 20260902065704 | 27 | 45 | 4.8 | 0.0 | 0.00 | 0.00 | 0.00 | 61 | 1011.4 |
| 20260902064204 | 26 | 338 | 6.4 | 0.0 | 0.00 | 0.00 | 0.00 | 63 | 1011.3 |
| 20260902062704 | 26 | 45 | 4.8 | 0.0 | 0.00 | 0.00 | 0.00 | 63 | 1011.2 |
| 20260902062204 | 26 | 45 | 3.2 | 0.0 | 0.00 | 0.00 | 0.00 | 61 | 1011.2 |
| 20260902061704 | 26 | 45 | 4.8 | 0.0 | 0.00 | 0.00 | 0.00 | 61 | 1011.1 |
| 20260902060704 | 26 | 315 | 3.2 | 0.0 | 0.00 | 0.00 | 0.00 | 62 | 1011.3 |
| 20260902055703 | 26 | 45 | 6.4 | 0.0 | 0.00 | 0.00 | 0.00 | 62 | 1011.1 |
| 20260902055204 | 26 | 0 | 3.2 | 0.0 | 0.00 | 0.00 | 0.00 | 63 | 1011.1 |
| 20260902054704 | 25 | 180 | 1.6 | 0.0 | 0.00 | 0.00 | 0.00 | 63 | 1011.1 |
| 20260902053704 | 24 | 225 | 0.0 | 0.0 | 0.00 | 0.00 | 0.00 | 66 | 1011.1 |
| 20260902053204 | 24 | 225 | 0.0 | 0.0 | 0.00 | 0.00 | 0.00 | 67 | 1011.1 |
| 20260902052704 | 24 | 225 | 0.0 | 0.0 | 0.00 | 0.00 | 0.00 | 68 | 1011.1 |
| 20260902051704 | 23 | 180 | 0.0 | 0.0 | 0.00 | 0.00 | 0.00 | 71 | 1011.1 |
| 20260902051204 | 23 | 135 | 1.6 | 0.0 | 0.00 | 0.00 | 0.00 | 72 | 1011.0 |
| 20260902050204 | 22 | 135 | 0.0 | 0.0 | 0.00 | 0.00 | 0.00 | 77 | 1010.9 |
| 20260902045704 | 21 | 225 | 0.0 | 0.0 | 0.00 | 0.00 | 0.00 | 77 | 1011.0 |
| 20260902045203 | 21 | 225 | 1.6 | 0.0 | 0.00 | 0.00 | 0.00 | 78 | 1010.8 |
| 20260902044704 | 21 | 225 | 0.0 | 0.0 | 0.00 | 0.00 | 0.00 | 78 | 1010.9 |
| 20260902044204 | 21 | 225 | 1.6 | 0.0 | 0.00 | 0.00 | 0.00 | 79 | 1010.7 |
| 20260902043704 | 20 | 180 | 3.2 | 0.0 | 0.00 | 0.00 | 0.00 | 80 | 1010.9 |
| 20260902042704 | 20 | 225 | 0.0 | 0.0 | 0.00 | 0.00 | 0.00 | 80 | 1010.6 |
| 20260902042204 | 20 | 225 | 0.0 | 0.0 | 0.00 | 0.00 | 0.00 | 79 | 1010.6 |
| 20260902041704 | 20 | 225 | 0.0 | 0.0 | 0.00 | 0.00 | 0.00 | 79 | 1010.4 |
| 20260902041204 | 21 | 225 | 0.0 | 0.0 | 0.00 | 0.00 | 0.00 | 79 | 1010.3 |
| 20260902040704 | 21 | 225 | 1.6 | 0.0 | 0.00 | 0.00 | 0.00 | 79 | 1010.4 |
| 20260902035203 | 21 | 180 | 1.6 | 0.0 | 0.00 | 0.00 | 0.00 | 79 | 1010.3 |
| 20260902034204 | 21 | 225 | 0.0 | 0.0 | 0.00 | 0.00 | 0.00 | 78 | 1010.3 |
| 20260902033704 | 21 | 225 | 1.6 | 0.0 | 0.00 | 0.00 | 0.00 | 78 | 1010.2 |
| 20260902033205 | 21 | 225 | 0.0 | 0.0 | 0.00 | 0.00 | 0.00 | 77 | 1010.2 |
| 20260902032704 | 21 | 225 | 0.0 | 0.0 | 0.00 | 0.00 | 0.00 | 77 | 1010.1 |
| 20260902032204 | 21 | 225 | 0.0 | 0.0 | 0.00 | 0.00 | 0.00 | 76 | 1010.1 |
| 20260902031704 | 22 | 270 | 0.0 | 0.0 | 0.00 | 0.00 | 0.00 | 76 | 1010.2 |
| 20260902031204 | 22 | 270 | 1.6 | 0.0 | 0.00 | 0.00 | 0.00 | 75 | 1010.2 |
| 20260902030704 | 22 | 45 | 0.0 | 0.0 | 0.00 | 0.00 | 0.00 | 75 | 1010.3 |
| 20260902030204 | 22 | 45 | 0.0 | 0.0 | 0.00 | 0.00 | 0.00 | 72 | 1010.3 |
| 20260902025704 | 22 | 45 | 0.0 | 0.0 | 0.00 | 0.00 | 0.00 | 72 | 1010.2 |
| 20260902024704 | 22 | 135 | 3.2 | 0.0 | 0.00 | 0.00 | 0.00 | 72 | 1010.3 |
| 20260902024203 | 22 | 225 | 0.0 | 0.0 | 0.00 | 0.00 | 0.00 | 72 | 1010.2 |
| 20260902023704 | 22 | 45 | 3.2 | 0.0 | 0.00 | 0.00 | 0.00 | 72 | 1010.1 |
| 20260902023204 | 22 | 0 | 0.0 | 0.0 | 0.00 | 0.00 | 0.00 | 73 | 1010.1 |
| 20260902022704 | 22 | 0 | 1.6 | 0.0 | 0.00 | 0.00 | 0.00 | 73 | 1010.0 |
| 20260902021703 | 22 | 90 | 0.0 | 0.0 | 0.00 | 0.00 | 0.00 | 75 | 1010.3 |
| 20260902021204 | 22 | 135 | 0.0 | 0.0 | 0.00 | 0.00 | 0.00 | 75 | 1010.3 |
| 20260902020704 | 22 | 0 | 0.0 | 0.0 | 0.00 | 0.00 | 0.00 | 75 | 1010.3 |
| 20260902020204 | 22 | 180 | 0.0 | 0.0 | 0.00 | 0.00 | 0.00 | 75 | 1010.3 |
| 20260902015703 | 22 | 225 | 1.6 | 0.0 | 0.00 | 0.00 | 0.00 | 75 | 1010.2 |
| 20260902014704 | 22 | 225 | 3.2 | 0.0 | 0.00 | 0.00 | 0.00 | 75 | 1010.4 |
| 20260902014205 | 22 | 0 | 0.0 | 0.0 | 0.00 | 0.00 | 0.00 | 74 | 1010.6 |
| 20260902013704 | 22 | 315 | 1.6 | 0.0 | 0.00 | 0.00 | 0.00 | 75 | 1010.3 |
| 20260902013204 | 22 | 0 | 1.6 | 0.0 | 0.00 | 0.00 | 0.00 | 75 | 1010.4 |
| 20260902012704 | 22 | 225 | 3.2 | 0.0 | 0.00 | 0.00 | 0.00 | 75 | 1010.3 |
| 20260902012204 | 21 | 270 | 0.0 | 0.0 | 0.00 | 0.00 | 0.00 | 75 | 1010.2 |
| 20260902011704 | 21 | 270 | 1.6 | 0.0 | 0.00 | 0.00 | 0.00 | 75 | 1010.3 |
| 20260902011204 | 21 | 225 | 1.6 | 0.0 | 0.00 | 0.00 | 0.00 | 76 | 1010.2 |
| 20260902010704 | 21 | 225 | 1.6 | 0.0 | 0.00 | 0.00 | 0.00 | 75 | 1010.1 |
| 20260902005704 | 21 | 180 | 0.0 | 0.0 | 0.00 | 0.00 | 0.00 | 74 | 1010.1 |
| 20260902005204 | 21 | 90 | 1.6 | 0.0 | 0.00 | 0.00 | 0.00 | 74 | 1010.0 |
| 20260902004704 | 21 | 225 | 1.6 | 0.0 | 0.00 | 0.00 | 0.00 | 74 | 1010.1 |
| 20260902004204 | 21 | 225 | 0.0 | 0.0 | 0.00 | 0.00 | 0.00 | 74 | 1010.1 |
| 20260902003204 | 21 | 180 | 0.0 | 0.0 | 0.00 | 0.00 | 0.00 | 75 | 1009.8 |
| 20260902002704 | 21 | 180 | 1.6 | 0.0 | 0.00 | 0.00 | 0.00 | 75 | 1009.8 |
| 20260902001703 | 21 | 270 | 0.0 | 0.0 | 0.00 | 0.00 | 0.00 | 75 | 1009.9 |
| 20260902001204 | 21 | 225 | 0.0 | 0.0 | 0.00 | 0.00 | 0.00 | 75 | 1009.9 |
| 20260902000704 | 21 | 225 | 0.0 | 0.0 | 0.00 | 0.00 | 0.00 | 75 | 1009.9 |
| 20260902000204 | 21 | 225 | 3.2 | 0.0 | 0.00 | 0.00 | 0.00 | 75 | 1009.9 |
| 20260901235704 | 21 | 180 | 0.0 | 0.0 | 0.00 | 0.00 | 0.00 | 75 | 1009.8 |
| 20260901235204 | 21 | 180 | 0.0 | 0.0 | 0.00 | 0.00 | 0.00 | 75 | 1009.7 |
| 20260901234704 | 21 | 180 | 3.2 | 0.0 | 0.00 | 0.00 | 0.00 | 76 | 1010.0 |
| 20260901234204 | 21 | 180 | 0.0 | 0.0 | 0.00 | 0.00 | 0.00 | 76 | 1010.0 |
| 20260901233704 | 21 | 225 | 0.0 | 0.0 | 0.00 | 0.00 | 0.00 | 76 | 1010.0 |
| 20260901232704 | 21 | 225 | 0.0 | 0.0 | 0.00 | 0.00 | 0.00 | 76 | 1009.9 |
| 20260901232204 | 21 | 225 | 0.0 | 0.0 | 0.00 | 0.00 | 0.00 | 75 | 1010.0 |
| 20260901231704 | 21 | 225 | 0.0 | 0.0 | 0.00 | 0.00 | 0.00 | 75 | 1009.8 |
| 20260901230704 | 21 | 225 | 1.6 | 0.0 | 0.00 | 0.00 | 0.00 | 74 | 1009.9 |
| 20260901230204 | 22 | 225 | 1.6 | 0.0 | 0.00 | 0.00 | 0.00 | 74 | 1009.8 |
| 20260901225704 | 22 | 225 | 1.6 | 0.0 | 0.00 | 0.00 | 0.00 | 74 | 1009.8 |
| 20260901225204 | 22 | 180 | 0.0 | 0.0 | 0.00 | 0.00 | 0.00 | 73 | 1009.7 |
| 20260901224704 | 22 | 180 | 1.6 | 0.0 | 0.00 | 0.00 | 0.00 | 71 | 1009.6 |
| 20260901224204 | 22 | 225 | 1.6 | 0.0 | 0.00 | 0.00 | 0.00 | 71 | 1009.5 |
| 20260901222704 | 22 | 180 | 1.6 | 0.0 | 0.00 | 0.00 | 0.00 | 75 | 1009.6 |
| 20260901222204 | 22 | 180 | 3.2 | 0.0 | 0.00 | 0.00 | 0.00 | 75 | 1009.7 |
| 20260901221704 | 22 | 225 | 0.0 | 0.0 | 0.00 | 0.00 | 0.00 | 74 | 1009.8 |